Wind_Speed
57 60 57 58 58 59 63 66 67 65 64 66 67 70 72 72 70 70 74 75 75 74 76 76 78 74 71 65 65 66 70 71 72 68 55 51 46 47 56 67 74 82 82 87 84 86 87 86 87
55 56 56 56 61 64 63 63 62 59 59 58 61 66 71 70 68 67 70 72 71 70 72 74 74 69 67 63 66 64 65 64 59 44 44 44 46 49 51 55 59 66 75 85 90 90 90 91 90
52 52 52 56 59 59 58 58 56 55 55 57 60 67 69 68 65 64 64 62 66 65 68 68 68 67 64 63 61 63 60 45 40 38 34 33 28 33 42 40 38 48 58 65 73 82 79 82 89
47 44 42 46 50 55 54 54 54 53 57 58 57 68 67 66 64 56 54 55 59 58 57 63 58 59 59 57 57 58 50 32 31 33 37 31 27 27 30 36 35 35 36 37 42 50 54 63 75
39 39 44 46 50 49 51 46 47 51 52 53 53 60 61 58 51 45 39 37 44 52 51 45 47 52 52 54 55 51 39 33 29 32 37 32 33 35 38 28 30 29 31 30 25 26 30 42 47
36 38 43 43 42 46 41 48 55 55 54 51 49 50 52 50 42 31 28 27 25 28 34 35 38 49 56 54 51 46 44 43 41 29 32 36 34 27 27 22 26 28 32 33 35 36 35 35 36
34 38 38 36 40 43 48 55 60 55 47 48 45 39 37 35 34 32 28 21 16 30 39 41 45 48 50 52 49 40 50 54 37 35 30 34 35 27 28 27 29 31 32 35 37 35 31 32 32
35 31 31 34 35 42 51 59 47 49 46 42 34 30 24 26 30 25 16 17 23 31 37 40 43 46 49 52 47 52 46 47 38 27 28 33 31 26 32 29 33 35 36 35 27 25 26 27 32
29 26 30 29 31 43 53 53 47 45 37 28 29 24 20 24 22 17 17 17 30 30 34 40 44 50 53 50 48 48 47 47 43 39 32 36 29 28 31 29 29 29 40 34 29 27 25 31 31
21 28 27 28 31 40 51 51 42 41 31 25 24 24 23 24 23 13 21 18 36 37 36 47 53 63 61 61 50 47 49 47 38 36 33 35 30 29 33 19 32 36 34 37 34 30 28 31 34
23 24 23 27 27 39 43 43 39 38 33 30 26 25 26 21 26 12 16 15 34 39 50 61 61 59 54 45 50 54 45 49 35 39 38 39 32 31 30 27 27 22 27 29 27 29 33 32 35
21 23 21 19 27 34 34 43 38 36 31 24 28 29 24 24 27 15 14 17 32 45 49 55 59 59 50 52 52 53 49 41 35 32 42 41 36 34 24 22 26 26 24 26 26 29 34 40 39
19 18 17 20 21 32 33 33 41 37 33 27 18 17 20 22 18 22 20 15 33 46 51 52 64 61 52 43 45 54 57 46 39 41 43 42 39 41 33 45 27 24 23 26 27 30 36 37 41
21 23 24 22 24 31 33 30 34 40 32 30 24 16 13 21 17 19 20 23 29 44 55 50 58 59 50 44 46 48 45 46 41 46 44 44 37 39 38 28 25 26 22 25 32 37 40 41 44
21 19 28 31 26 28 29 27 30 42 34 30 31 22 19 17 20 17 15 29 31 53 56 60 55 56 58 51 53 45 44 40 44 46 46 46 41 38 33 30 30 29 27 26 34 41 47 50 48
27 25 25 26 24 25 24 30 28 35 43 32 30 27 11 15 13 19 19 29 38 64 52 56 62 62 58 53 53 43 49 45 40 42 43 43 40 38 35 32 30 34 33 37 42 52 53 52 50
24 29 29 29 22 23 24 23 28 32 36 41 30 30 18 12 13 13 18 25 40 57 57 54 59 52 56 58 57 52 54 52 48 43 42 38 36 34 36 35 36 41 46 46 51 56 60 65 46
24 25 29 31 29 24 23 24 29 31 34 38 38 26 28 21 17 18 19 24 43 58 60 57 53 52 55 57 54 55 56 52 51 49 52 46 44 42 44 47 50 52 54 53 57 65 65 53 42
27 26 26 25 25 28 20 25 27 31 31 39 37 27 27 28 20 20 22 24 36 41 68 61 58 54 54 59 56 57 59 60 57 54 52 55 59 60 63 62 63 62 60 62 65 62 54 42 43
32 32 31 25 25 27 23 23 26 29 30 34 38 38 28 32 26 17 17 19 32 46 50 66 70 64 61 62 60 64 66 68 68 68 65 63 62 61 62 60 66 67 62 69 63 51 48 46 47
35 36 31 29 27 26 25 26 27 28 29 31 39 36 35 38 33 22 17 19 24 36 46 55 57 57 67 63 60 66 66 67 67 68 66 66 64 62 63 63 61 65 63 66 60 48 45 45 49
38 35 34 32 24 26 28 30 31 26 28 29 36 36 36 36 35 26 20 15 21 29 35 40 43 48 58 51 62 63 70 73 71 69 64 66 68 71 73 66 62 71 63 53 53 51 50 52 54
52 38 38 35 31 23 21 24 27 21 28 26 31 33 37 35 33 30 21 15 13 25 33 33 36 44 47 49 55 55 60 64 67 67 64 65 66 66 70 71 70 64 68 50 52 53 54 56 58
52 43 41 40 36 26 27 23 27 25 25 25 26 30 35 31 31 31 23 18 16 16 25 32 33 39 42 45 47 51 55 56 60 62 63 64 66 63 55 63 56 57 63 54 55 58 58 60 54
52 46 42 44 40 31 29 22 29 34 28 29 24 26 30 32 29 26 25 21 17 17 19 27 34 38 43 45 43 46 48 49 53 59 52 58 55 51 45 44 48 49 46 52 52 55 56 50 49
47 46 43 45 44 39 34 23 34 35 37 30 25 24 22 31 23 28 25 24 21 16 19 23 29 35 35 38 43 44 47 45 45 44 47 49 51 46 48 46 45 46 45 45 48 50 52 49 46
50 46 55 46 45 39 35 31 35 36 35 36 29 28 21 25 24 25 27 26 26 25 18 20 28 32 40 38 37 41 42 40 41 42 43 41 42 43 43 43 45 49 47 50 53 49 44 47 41
50 54 52 46 43 47 42 40 36 38 36 37 32 28 27 24 24 25 28 25 27 27 26 23 23 30 34 44 44 41 39 39 39 41 43 43 44 42 43 44 45 47 47 45 46 48 46 51 56
55 55 54 56 55 52 50 41 41 41 41 35 35 29 32 29 26 26 28 28 30 25 26 25 26 26 32 36 43 51 48 46 46 44 44 44 46 48 45 46 48 51 48 41 39 48 53 51 60
69 67 67 62 59 54 46 38 43 45 42 38 38 31 35 33 29 27 28 29 33 32 26 26 27 29 30 30 36 41 48 52 59 57 54 59 55 52 52 51 55 52 51 51 42 47 52 61 71
Wind_Direction
280 280 284 283 286 287 287 285 283 285 286 286 282 279 277 276 274 272 269 265 262 261 258 256 253 252 250 247 245 243 243 242 245 245 255 250 250 251 255 257 256 257 258 258 260 257 258 259 261
280 280 284 285 284 287 290 291 292 292 289 288 285 281 277 278 276 272 268 267 264 260 256 253 249 248 244 237 238 239 242 244 246 234 239 246 255 254 255 256 258 259 261 261 261 260 263 264 266
281 282 284 284 286 289 295 294 295 294 292 288 285 281 279 279 278 274 271 269 266 258 251 249 245 242 239 233 234 234 237 236 218 217 238 254 246 250 252 257 264 266 267 269 269 266 266 268 265
284 288 289 290 290 296 299 301 304 300 293 287 282 279 285 283 279 276 271 264 261 253 247 244 242 236 232 228 226 227 223 217 226 236 234 236 247 240 246 253 265 274 270 277 277 268 275 276 273
284 288 288 292 298 301 303 311 306 302 297 289 288 287 286 285 283 288 277 267 250 248 242 240 240 231 221 217 217 211 199 216 225 216 218 232 247 248 249 262 274 286 282 285 300 310 304 281 278
285 285 291 299 304 307 311 313 314 308 299 300 297 292 289 294 296 303 303 294 258 239 220 231 218 210 211 209 199 203 206 219 234 223 234 227 240 253 267 275 294 292 287 296 298 308 316 307 297
287 290 296 302 307 310 312 318 315 311 308 304 302 298 301 300 308 312 307 282 232 204 192 200 195 199 197 199 195 185 200 213 206 226 234 236 249 253 269 278 292 290 287 299 303 304 305 309 314
289 294 297 303 307 312 314 318 325 317 315 315 314 312 297 295 307 306 286 244 184 177 183 183 190 186 190 190 190 193 203 212 225 235 241 249 252 258 269 284 286 294 291 302 312 322 318 319 327
293 292 302 302 315 316 316 327 329 327 326 314 317 309 275 289 296 296 271 227 172 178 172 175 180 184 183 193 195 196 206 218 228 242 253 248 253 262 269 280 288 295 302 297 301 313 325 333 335
287 296 289 303 311 316 323 334 336 344 334 307 313 305 277 280 290 278 271 226 180 180 178 172 178 186 185 190 196 199 210 220 242 250 243 258 256 263 268 269 281 296 297 295 299 307 321 325 327
290 286 293 299 313 326 339 340 348 350 344 308 311 322 279 274 283 250 272 242 195 183 176 179 182 188 186 192 202 203 214 224 235 238 241 247 254 258 257 274 287 291 296 302 302 307 313 318 319
296 277 293 306 316 329 349 356 353 351 345 325 320 319 280 293 279 246 258 243 197 180 179 182 187 186 189 195 204 210 213 231 236 238 239 248 251 257 266 261 288 276 285 284 301 304 309 315 317
279 279 299 323 331 337 345 357 5 351 348 324 315 319 317 324 286 262 237 257 204 186 183 184 190 193 196 206 207 203 210 219 229 230 238 245 254 255 267 278 273 273 270 286 293 304 308 310 309
270 284 292 310 330 334 340 350 357 349 342 351 328 290 289 291 305 291 244 233 223 196 187 191 193 198 201 211 213 209 215 223 229 225 235 248 258 267 269 265 270 273 280 282 289 295 305 301 297
277 293 281 296 317 329 342 343 352 358 349 350 345 328 285 277 292 260 265 227 216 192 197 197 199 203 212 212 214 223 225 221 225 231 245 253 259 256 259 261 270 278 282 279 292 299 305 306 303
275 275 280 291 303 322 330 339 350 352 357 347 347 344 292 285 291 284 259 223 213 190 200 206 204 209 213 216 212 211 218 223 228 238 245 248 246 250 257 261 273 280 284 292 294 296 303 304 300
287 281 285 297 299 310 331 340 345 344 354 356 350 347 330 293 270 269 279 225 211 204 204 204 212 213 216 220 213 218 217 221 225 230 236 241 247 252 259 269 273 278 290 294 295 295 297 300 298
277 287 288 288 295 301 312 323 338 340 343 345 351 353 349 319 277 249 253 243 210 214 212 216 217 220 222 221 220 228 226 227 230 236 243 248 254 258 270 273 275 283 284 292 293 294 299 301 296
281 285 285 296 292 294 296 316 332 337 341 340 346 353 355 346 311 273 258 253 221 223 215 224 221 226 229 228 226 227 228 231 235 241 248 257 261 268 270 273 274 277 289 289 293 294 297 288 286
273 283 283 292 298 291 289 306 325 326 334 333 337 349 5 354 337 306 285 269 236 221 224 226 226 234 237 234 237 233 233 236 241 245 251 260 266 268 273 279 279 281 285 281 292 290 291 287 291
272 280 285 283 297 284 290 305 315 316 323 327 329 335 357 2 347 318 304 275 248 231 226 226 232 235 235 238 241 241 241 242 243 248 254 260 267 273 276 277 275 277 285 287 288 287 285 281 278
268 274 279 273 292 282 281 298 305 308 313 327 331 337 342 357 352 338 313 300 258 241 233 232 232 233 237 239 242 244 244 246 250 253 259 262 268 270 272 273 275 280 285 286 285 281 282 281 281
264 271 270 272 277 285 295 302 295 295 305 320 324 328 337 352 348 343 331 307 292 254 236 235 236 240 238 239 241 243 245 248 251 255 260 262 265 268 269 272 278 278 283 284 283 280 282 285 286
260 262 266 272 272 278 291 308 285 293 300 308 318 324 328 342 352 344 343 331 304 277 254 241 237 236 239 243 242 243 245 247 250 254 259 259 262 266 269 273 276 277 280 282 283 285 287 286 281
257 258 262 267 268 266 286 308 282 294 293 296 308 314 321 330 349 349 343 351 337 307 278 258 248 245 240 237 241 243 244 244 245 250 255 260 261 265 266 271 278 280 282 287 284 284 284 283 280
254 259 263 266 263 261 284 282 282 300 290 286 295 294 309 318 325 336 345 343 346 331 304 278 259 244 244 245 246 248 248 248 253 257 257 259 263 260 266 271 272 275 278 283 284 286 285 283 296
254 255 257 260 263 262 276 279 285 293 299 284 285 284 294 307 313 326 342 349 344 336 317 294 276 261 247 244 244 243 244 246 245 251 255 259 263 267 273 267 270 276 278 275 280 289 297 291 299
253 251 254 252 251 267 276 279 277 282 299 287 276 278 284 294 305 314 326 331 332 336 326 308 290 275 267 251 248 248 249 251 250 250 253 259 263 264 266 268 270 272 276 282 290 294 295 281 290
247 248 249 258 268 273 274 271 276 276 294 280 268 271 272 284 293 301 311 325 329 332 329 320 301 288 271 266 259 253 251 251 251 251 253 253 255 260 263 266 267 266 270 281 292 291 283 282 291
253 255 260 264 265 265 261 260 264 268 285 278 261 263 264 276 279 289 300 309 320 323 322 321 322 298 285 271 260 260 258 256 255 255 255 257 260 259 261 269 274 272 275 275 277 280 287 284 288
Height
10744 10742 10741 10741 10740 10737 10732 10728 10727 10726 10725 10719 10714 10709 10705 10704 10706 10704 10698 10697 10700 10704 10708 10713 10717 10725 10733 10743 10746 10752 10754 10762 10766 10779 10787 10785 10786 10787 10789 10790 10790 10788 10785 10783 10790 10797 10799 10800 10802
10734 10733 10733 10732 10728 10724 10721 10717 10715 10713 10710 10706 10699 10691 10685 10686 10685 10684 10682 10679 10683 10685 10688 10692 10698 10709 10719 10727 10732 10740 10743 10749 10762 10771 10776 10776 10777 10779 10780 10779 10778 10781 10780 10782 10785 10789 10790 10792 10794
10724 10725 10724 10721 10717 10713 10711 10706 10703 10701 10696 10691 10684 10671 10668 10668 10665 10667 10665 10667 10661 10671 10669 10672 10682 10695 10706 10713 10721 10728 10736 10745 10755 10762 10767 10769 10769 10768 10768 10771 10774 10774 10775 10777 10781 10780 10781 10783 10785
10716 10717 10715 10712 10708 10705 10699 10697 10694 10687 10681 10675 10671 10656 10653 10652 10649 10652 10649 10646 10646 10649 10646 10662 10670 10683 10693 10702 10710 10721 10731 10736 10744 10753 10761 10763 10763 10762 10763 10765 10765 10766 10766 10770 10773 10775 10773 10772 10773
10709 10709 10708 10704 10702 10697 10691 10688 10682 10675 10666 10659 10657 10646 10638 10633 10635 10635 10630 10632 10635 10636 10641 10653 10663 10674 10683 10692 10702 10715 10723 10732 10739 10748 10754 10755 10756 10758 10757 10759 10760 10757 10760 10764 10765 10769 10766 10767 10767
10705 10703 10701 10697 10694 10688 10683 10677 10670 10662 10652 10646 10641 10634 10626 10622 10623 10623 10622 10619 10622 10628 10636 10647 10657 10664 10671 10685 10698 10709 10719 10729 10734 10740 10744 10746 10749 10750 10749 10752 10751 10750 10752 10757 10761 10759 10756 10756 10758
10698 10697 10695 10692 10689 10681 10675 10671 10661 10650 10641 10633 10627 10623 10621 10618 10616 10616 10615 10614 10616 10623 10627 10634 10647 10658 10671 10684 10691 10700 10711 10719 10726 10731 10736 10739 10741 10744 10742 10746 10746 10745 10746 10751 10752 10751 10750 10749 10750
10693 10692 10688 10687 10683 10678 10671 10663 10652 10641 10631 10625 10620 10619 10619 10618 10617 10615 10615 10614 10618 10619 10626 10635 10646 10659 10670 10679 10686 10695 10704 10710 10716 10722 10727 10730 10732 10736 10736 10740 10739 10740 10740 10745 10743 10744 10742 10742 10744
10687 10686 10684 10682 10678 10674 10664 10657 10645 10634 10625 10621 10620 10620 10619 10618 10620 10618 10616 10616 10618 10624 10626 10634 10647 10656 10666 10675 10682 10692 10700 10703 10710 10715 10718 10720 10726 10730 10730 10735 10734 10732 10733 10736 10737 10740 10738 10735 10738
10682 10681 10679 10678 10674 10670 10658 10651 10640 10629 10623 10621 10622 10620 10620 10619 10621 10621 10618 10617 10619 10622 10630 10640 10644 10649 10657 10668 10679 10689 10695 10700 10704 10708 10710 10712 10718 10722 10723 10729 10730 10729 10728 10726 10730 10733 10732 10729 10728
10677 10677 10675 10673 10669 10664 10654 10646 10636 10629 10626 10622 10621 10619 10620 10620 10621 10622 10621 10621 10622 10624 10628 10633 10640 10652 10663 10672 10680 10687 10692 10694 10696 10700 10704 10707 10711 10714 10718 10721 10725 10724 10721 10719 10722 10723 10724 10723 10722
10672 10672 10671 10670 10666 10660 10653 10644 10635 10632 10627 10625 10621 10619 10619 10620 10621 10622 10621 10622 10625 10629 10632 10640 10647 10655 10662 10668 10674 10683 10689 10691 10693 10695 10697 10700 10703 10708 10712 10714 10717 10721 10719 10715 10713 10716 10718 10716 10713
10668 10668 10667 10665 10662 10658 10651 10644 10638 10634 10628 10624 10620 10617 10616 10617 10618 10620 10622 10624 10627 10631 10636 10640 10647 10656 10661 10664 10670 10674 10678 10684 10690 10691 10692 10693 10697 10703 10705 10707 10710 10712 10711 10708 10709 10710 10711 10710 10708
10663 10663 10663 10661 10660 10655 10649 10643 10640 10635 10627 10623 10619 10615 10612 10612 10614 10617 10620 10624 10627 10631 10637 10641 10647 10653 10657 10663 10667 10671 10674 10679 10681 10683 10686 10690 10692 10695 10696 10699 10700 10701 10703 10703 10703 10702 10702 10701 10700
10658 10658 10658 10657 10656 10652 10648 10643 10640 10635 10626 10621 10615 10611 10610 10608 10608 10611 10615 10620 10625 10631 10635 10638 10645 10651 10654 10659 10663 10667 10669 10673 10675 10678 10682 10685 10687 10689 10689 10691 10692 10693 10693 10694 10694 10695 10693 10692 10691
10653 10652 10652 10652 10651 10650 10646 10642 10638 10634 10628 10621 10615 10609 10606 10605 10606 10606 10609 10613 10619 10625 10631 10637 10640 10645 10649 10653 10655 10659 10663 10666 10669 10673 10676 10678 10680 10681 10683 10683 10683 10685 10687 10687 10687 10686 10686 10684 10683
10647 10646 10647 10648 10649 10647 10644 10640 10637 10633 10627 10621 10615 10608 10605 10603 10602 10603 10603 10607 10613 10619 10625 10632 10638 10640 10645 10647 10650 10653 10656 10659 10662 10665 10669 10671 10674 10674 10674 10674 10674 10676 10679 10677 10678 10677 10675 10675 10671
10640 10641 10641 10642 10642 10641 10641 10637 10634 10631 10625 10622 10617 10610 10604 10601 10599 10599 10601 10603 10610 10617 10620 10626 10632 10636 10639 10642 10646 10649 10650 10655 10657 10660 10662 10663 10664 10664 10665 10666 10667 10669 10669 10669 10669 10667 10663 10660 10659
10633 10634 10635 10636 10638 10636 10637 10634 10630 10627 10623 10621 10616 10611 10605 10601 10597 10596 10597 10598 10602 10608 10615 10617 10623 10628 10631 10635 10638 10642 10645 10647 10651 10652 10654 10655 10655 10658 10659 10659 10659 10660 10659 10658 10658 10656 10653 10650 10649
10626 10628 10628 10629 10631 10630 10631 10630 10626 10624 10622 10620 10615 10610 10605 10600 10596 10594 10592 10593 10595 10601 10606 10612 10616 10619 10624 10627 10631 10635 10638 10640 10642 10644 10644 10646 10647 10648 10649 10649 10647 10649 10648 10646 10645 10644 10641 10638 10638
10618 10620 10622 10623 10626 10625 10625 10623 10622 10620 10619 10617 10613 10607 10603 10599 10594 10591 10590 10589 10590 10592 10598 10603 10608 10611 10613 10617 10620 10624 10628 10630 10634 10636 10636 10638 10638 10639 10639 10640 10638 10638 10637 10635 10633 10632 10631 10632 10630
10609 10613 10615 10617 10619 10618 10618 10618 10618 10614 10613 10613 10610 10606 10601 10596 10593 10588 10586 10585 10585 10587 10589 10592 10597 10601 10605 10607 10611 10615 10617 10622 10624 10626 10627 10628 10629 10630 10630 10630 10629 10627 10625 10621 10621 10620 10621 10622 10620
10594 10606 10608 10611 10612 10612 10612 10614 10609 10611 10607 10608 10607 10604 10600 10597 10591 10587 10582 10582 10581 10583 10583 10585 10588 10591 10595 10597 10601 10603 10606 10610 10612 10614 10617 10617 10619 10620 10619 10618 10617 10614 10611 10610 10609 10608 10607 10607 10606
10585 10596 10599 10602 10605 10607 10606 10608 10601 10604 10602 10602 10603 10601 10597 10594 10590 10586 10582 10578 10577 10577 10578 10580 10581 10584 10586 10589 10592 10595 10598 10601 10602 10605 10607 10609 10610 10609 10608 10607 10606 10602 10600 10599 10595 10594 10592 10592 10591
10578 10583 10590 10594 10596 10599 10599 10603 10595 10599 10598 10595 10596 10597 10593 10591 10589 10585 10582 10576 10573 10572 10573 10573 10575 10577 10580 10583 10584 10587 10591 10591 10592 10595 10596 10599 10599 10599 10599 10597 10595 10590 10587 10584 10583 10580 10577 10578 10578
10568 10573 10581 10584 10588 10590 10592 10596 10590 10592 10593 10588 10588 10590 10590 10587 10586 10583 10579 10576 10571 10569 10569 10569 10569 10571 10573 10575 10577 10579 10582 10583 10583 10587 10588 10588 10586 10588 10588 10585 10580 10580 10576 10575 10572 10564 10562 10564 10560
10558 10566 10564 10573 10579 10583 10584 10586 10584 10584 10586 10584 10581 10581 10584 10583 10581 10580 10575 10571 10569 10566 10564 10563 10563 10564 10565 10568 10567 10570 10571 10573 10574 10576 10575 10574 10574 10576 10575 10573 10570 10569 10565 10566 10562 10557 10550 10548 10552
10546 10549 10555 10563 10569 10573 10578 10577 10576 10575 10580 10580 10575 10574 10574 10576 10575 10574 10572 10569 10565 10562 10560 10557 10556 10556 10557 10558 10559 10561 10561 10562 10563 10565 10565 10565 10564 10563 10565 10564 10563 10560 10557 10553 10548 10546 10546 10542 10542
10532 10537 10543 10549 10559 10566 10570 10570 10564 10564 10569 10572 10568 10567 10566 10567 10567 10568 10567 10566 10563 10560 10557 10555 10551 10549 10548 10548 10550 10551 10552 10552 10552 10553 10553 10551 10552 10553 10554 10553 10551 10548 10547 10543 10542 10542 10539 10535 10529
10519 10525 10530 10538 10546 10554 10558 10561 10553 10550 10558 10562 10563 10559 10558 10558 10559 10559 10559 10558 10557 10556 10552 10550 10547 10542 10540 10541 10540 10538 10537 10540 10541 10542 10542 10538 10544 10542 10542 10542 10539 10537 10537 10536 10535 10532 10531 10528 10523